Retour au catalogue

STARLINK-30439

ActifCommunicationsVLEO
NORAD 57867·PAYLOAD·🇺🇸 United States

Lancé Sep 16, 2023 depuis Cape Canaveral Space Force Station

Loading…

Prochains Passages (prochaines 24 heures)

TLE

FraisSource: CelesTrak SupGP

Époque: Sep 14, 2026, 20:45 UTC

1 57867C 23144D   26257.86506944 -.00023855  00000+0 -86408-3 0  2571
2 57867  43.0021 296.7954 0001486 267.1035 318.1339 15.27587875    14

Suivez STARLINK-30439 en temps réel avec AllMySat

Download on the App Store